Vorticity
9 24 15 7 15 6 2 2 8 12 -0 9 6 4 5 7 1 2 8 1 9 9 32 -0 2 -17 18 4 4 0 8 15 12 9 2 3 4 2 3 10 13 10 5
5 8 14 18 8 -1 4 10 12 8 -1 7 6 8 6 10 2 2 4 5 6 5 17 15 23 16 16 6 3 11 10 23 12 23 14 6 7 12 21 22 9 3 2
-2 1 18 10 1 8 12 9 0 5 8 3 1 10 12 7 2 7 7 9 4 9 9 8 11 18 20 9 1 9 -5 17 10 6 14 24 10 24 7 8 7 13 10
-3 -0 12 12 6 5 14 -3 5 1 3 9 2 -0 12 1 8 19 15 3 10 6 10 2 1 9 12 4 14 12 5 17 12 9 11 11 15 2 -2 7 7 6 9
6 6 18 10 8 10 3 2 -5 -1 -1 10 -14 -14 28 26 11 15 21 6 16 2 9 10 4 2 4 4 -0 7 7 6 15 12 7 10 8 1 13 3 -10 5 12
2 5 14 8 4 12 0 7 10 0 -5 -3 -10 6 7 6 20 14 12 1 8 7 -0 12 4 5 9 -1 14 12 8 11 11 17 18 16 12 -3 -3 -1 4 16 12
4 -3 12 7 9 13 6 -0 0 1 4 1 -2 0 3 2 5 14 14 16 10 12 10 7 9 8 10 0 10 2 13 10 8 15 7 22 14 13 22 -3 3 14 19
2 2 11 12 10 9 1 6 1 1 0 -5 3 0 4 -2 5 13 13 21 7 4 17 13 6 4 13 7 3 22 -12 -37 14 12 7 20 20 -3 -14 -2 20 11 16
6 0 14 10 8 7 11 5 2 6 -1 -2 4 2 -1 3 11 1 25 33 10 13 19 8 16 19 -1 8 4 10 11 4 -1 15 8 11 9 3 8 7 11 12 14
4 4 7 8 -1 3 0 1 0 4 -3 2 -1 1 2 6 -2 3 9 8 12 11 13 12 17 10 13 6 13 3 6 16 14 9 5 4 5 6 13 13 17 14 18
3 6 -1 1 1 2 2 1 2 1 2 -1 -0 1 2 2 2 5 21 26 18 9 14 16 4 11 17 16 4 12 -1 16 7 4 18 13 19 17 14 13 14 15 16
4 3 -1 -5 0 2 1 4 2 5 14 3 -1 5 3 8 3 11 27 7 11 6 6 16 18 7 6 16 8 -4 8 23 5 14 13 14 21 22 23 17 12 14 15
2 6 5 2 2 4 8 5 3 -2 10 7 -3 20 11 34 36 20 5 7 7 7 19 14 6 14 9 1 -15 14 9 16 12 22 26 20 9 12 15 12 16 16 12
1 4 6 3 4 1 3 6 -2 -14 2 5 -3 0 28 13 5 10 9 10 10 20 9 12 13 21 -8 9 3 15 9 14 20 18 15 18 14 15 16 7 13 13 9
8 6 8 5 3 3 10 5 7 8 9 2 -1 11 13 -5 -1 13 16 15 12 13 15 18 12 16 11 21 12 14 17 16 15 16 11 12 10 9 11 13 12 11 10
3 4 5 12 19 7 2 17 12 5 -1 15 6 12 11 9 17 12 12 11 15 20 14 15 12 13 11 16 20 16 20 21 21 15 16 17 14 11 12 13 14 13 13
12 11 17 11 7 15 -22 -2 13 4 10 8 20 18 12 9 10 11 12 18 15 16 8 10 16 17 15 18 20 12 11 11 11 10 8 9 13 17 17 17 16 12 13
12 -3 -5 -19 21 -2 6 -2 9 7 39 30 5 8 11 12 9 17 16 21 13 14 18 14 14 22 15 11 9 13 14 13 14 13 12 12 14 15 15 13 12 12 13
-1 39 0 16 3 14 10 6 15 18 8 7 13 16 10 17 19 23 16 15 16 20 20 18 15 12 9 19 20 18 18 20 20 17 16 15 14 13 12 12 11 12 11
-3 5 4 -0 -8 23 16 2 9 10 11 13 9 16 15 21 22 17 19 14 11 6 13 17 11 17 15 11 14 12 15 15 15 14 15 12 12 13 12 12 13 11 9
9 17 -4 22 2 15 8 12 15 15 9 5 14 17 19 13 3 17 15 8 12 17 18 16 14 9 11 11 9 7 8 16 17 15 12 12 12 12 12 12 12 11 10
3 17 -1 16 16 12 20 16 6 15 18 18 18 13 3 4 6 18 12 9 21 15 13 10 7 10 9 11 9 13 14 8 16 18 16 16 14 10 8 8 8 8 8
-9 2 5 19 24 18 6 22 26 14 15 15 9 6 11 9 9 15 12 22 9 14 6 9 11 13 10 11 10 12 13 13 11 15 18 17 11 14 19 17 14 14 14
8 11 15 13 9 17 41 -35 6 14 9 8 7 4 15 12 12 13 17 13 13 7 11 9 8 8 8 8 10 11 10 11 13 14 19 20 14 14 13 11 12 15 15
15 14 12 14 15 15 12 13 12 5 7 8 8 11 17 17 12 14 18 14 9 9 7 5 5 5 7 7 8 8 11 9 12 14 15 20 19 17 15 15 19 19 18
13 13 15 12 12 15 8 7 3 6 10 11 13 15 12 13 17 24 18 12 7 8 8 6 5 6 6 6 7 6 8 8 9 11 13 17 18 16 19 14 12 13 14
Height
5897 5898 5899 5901 5903 5905 5907 5907 5907 5906 5904 5904 5902 5899 5897 5893 5889 5884 5881 5879 5875 5870 5870 5869 5868 5866 5863 5860 5859 5857 5855 5852 5851 5848 5846 5843 5843 5842 5842 5841 5841 5840 5839
5895 5897 5897 5899 5901 5902 5904 5903 5903 5901 5900 5897 5895 5894 5892 5890 5886 5882 5877 5874 5872 5870 5866 5863 5861 5860 5857 5854 5852 5849 5848 5845 5843 5842 5838 5835 5835 5832 5831 5830 5829 5828 5826
5892 5893 5895 5896 5898 5899 5899 5898 5897 5897 5895 5892 5891 5889 5888 5885 5882 5878 5874 5870 5866 5863 5861 5859 5856 5854 5851 5848 5845 5843 5839 5836 5833 5830 5828 5825 5823 5820 5820 5819 5818 5816 5815
5887 5889 5890 5892 5894 5894 5894 5893 5893 5893 5891 5889 5888 5886 5884 5881 5876 5872 5868 5865 5861 5858 5855 5853 5850 5847 5845 5842 5838 5835 5831 5828 5825 5822 5819 5816 5813 5811 5809 5807 5807 5803 5801
5882 5884 5885 5887 5887 5888 5888 5887 5887 5887 5886 5885 5883 5881 5878 5874 5871 5865 5861 5859 5856 5853 5850 5846 5842 5840 5837 5834 5831 5827 5823 5821 5817 5813 5810 5808 5807 5804 5800 5796 5794 5793 5792
5876 5878 5878 5880 5881 5882 5881 5881 5882 5881 5880 5879 5878 5875 5871 5868 5865 5861 5855 5852 5849 5847 5843 5840 5835 5831 5829 5826 5821 5817 5814 5811 5808 5802 5800 5796 5794 5789 5786 5784 5783 5781 5778
5869 5871 5871 5873 5874 5875 5875 5875 5875 5875 5873 5873 5870 5867 5864 5860 5856 5854 5849 5845 5842 5839 5837 5830 5826 5821 5821 5817 5813 5810 5806 5802 5797 5793 5790 5786 5781 5775 5772 5771 5768 5765 5763
5861 5863 5865 5866 5867 5867 5868 5868 5868 5868 5867 5865 5862 5859 5856 5851 5847 5844 5840 5835 5833 5829 5826 5822 5818 5814 5812 5807 5803 5798 5795 5790 5786 5781 5777 5773 5769 5763 5758 5757 5754 5751 5747
5853 5855 5857 5859 5860 5861 5861 5861 5861 5861 5859 5857 5854 5851 5848 5843 5838 5833 5828 5824 5822 5818 5814 5809 5808 5804 5800 5797 5792 5789 5783 5778 5774 5768 5764 5760 5756 5750 5745 5741 5739 5735 5731
5845 5847 5850 5851 5852 5852 5852 5853 5852 5851 5849 5847 5845 5842 5839 5834 5829 5826 5821 5816 5811 5808 5806 5801 5796 5792 5789 5784 5779 5776 5772 5766 5762 5756 5751 5747 5742 5737 5732 5727 5725 5720 5716
5835 5838 5841 5843 5843 5844 5844 5843 5841 5839 5837 5837 5834 5831 5828 5824 5818 5814 5809 5805 5802 5798 5795 5791 5787 5782 5776 5771 5766 5761 5758 5753 5749 5745 5739 5734 5729 5724 5719 5716 5713 5709 5705
5826 5828 5831 5833 5833 5834 5834 5832 5829 5824 5824 5824 5823 5820 5816 5810 5806 5803 5798 5794 5791 5787 5783 5778 5773 5767 5761 5757 5753 5749 5744 5740 5735 5730 5725 5721 5717 5712 5708 5703 5699 5695 5691
5816 5818 5821 5822 5824 5824 5824 5822 5819 5817 5816 5814 5811 5809 5803 5796 5793 5789 5786 5784 5779 5775 5770 5765 5760 5756 5753 5745 5740 5735 5731 5727 5722 5717 5713 5708 5704 5700 5696 5692 5688 5684 5682
5807 5809 5811 5813 5815 5815 5814 5811 5809 5807 5805 5804 5800 5796 5791 5786 5782 5777 5773 5769 5765 5761 5757 5752 5748 5742 5739 5735 5729 5723 5718 5714 5709 5704 5700 5696 5692 5689 5685 5681 5679 5676 5673
5796 5799 5801 5803 5804 5803 5802 5799 5799 5797 5795 5792 5787 5783 5779 5777 5772 5767 5762 5757 5752 5747 5743 5739 5733 5729 5726 5722 5717 5713 5707 5702 5698 5693 5688 5686 5682 5678 5675 5672 5669 5666 5663
5785 5787 5789 5791 5791 5790 5786 5788 5787 5785 5782 5780 5775 5770 5768 5763 5760 5754 5749 5744 5739 5734 5730 5726 5722 5718 5715 5711 5706 5700 5695 5691 5688 5684 5680 5676 5672 5669 5666 5663 5659 5656 5654
5772 5774 5774 5774 5775 5774 5773 5772 5770 5771 5766 5765 5760 5758 5755 5752 5746 5741 5737 5732 5727 5723 5719 5715 5711 5706 5703 5698 5694 5690 5686 5682 5677 5673 5670 5666 5663 5660 5657 5653 5651 5648 5645
5758 5760 5759 5762 5762 5761 5763 5760 5759 5757 5754 5750 5749 5746 5742 5739 5735 5730 5725 5721 5717 5712 5708 5705 5701 5697 5693 5690 5686 5682 5678 5673 5669 5666 5662 5659 5656 5652 5649 5646 5644 5641 5638
5748 5748 5750 5751 5751 5750 5749 5748 5748 5745 5742 5738 5736 5733 5730 5727 5722 5718 5714 5711 5706 5703 5699 5696 5694 5690 5686 5683 5680 5675 5671 5666 5662 5658 5655 5652 5649 5646 5643 5640 5638 5635 5632
5737 5738 5740 5740 5740 5738 5736 5737 5734 5734 5734 5726 5723 5719 5718 5716 5713 5709 5705 5701 5698 5695 5691 5689 5686 5684 5680 5678 5674 5670 5666 5661 5657 5652 5649 5645 5642 5640 5637 5634 5632 5629 5626
5725 5724 5726 5727 5724 5726 5725 5723 5722 5720 5719 5719 5714 5708 5708 5706 5704 5701 5697 5693 5690 5687 5685 5682 5680 5678 5675 5672 5668 5665 5660 5656 5651 5647 5643 5640 5636 5634 5631 5628 5626 5623 5621
5713 5709 5712 5713 5714 5715 5712 5711 5709 5708 5707 5705 5706 5703 5698 5697 5696 5693 5690 5686 5684 5681 5679 5677 5675 5673 5670 5667 5664 5660 5655 5650 5645 5641 5637 5634 5631 5628 5625 5623 5620 5617 5614
5698 5699 5703 5704 5704 5703 5701 5699 5697 5697 5697 5696 5696 5693 5690 5686 5685 5684 5680 5678 5677 5675 5674 5672 5669 5667 5665 5662 5658 5654 5650 5646 5641 5636 5632 5628 5625 5622 5619 5616 5613 5610 5608
5686 5690 5689 5691 5693 5691 5690 5689 5689 5686 5687 5685 5684 5682 5680 5678 5676 5674 5673 5672 5670 5669 5668 5666 5664 5662 5659 5656 5654 5650 5646 5642 5637 5632 5627 5623 5620 5617 5614 5611 5608 5605 5603
5679 5679 5679 5680 5679 5681 5681 5679 5677 5677 5675 5674 5673 5672 5671 5670 5668 5666 5666 5664 5664 5663 5662 5661 5659 5656 5654 5652 5649 5646 5642 5638 5633 5629 5623 5619 5615 5612 5610 5607 5604 5601 5598
5669 5669 5669 5670 5669 5668 5668 5668 5668 5667 5666 5664 5663 5662 5661 5660 5659 5658 5658 5657 5657 5657 5655 5654 5652 5651 5649 5646 5644 5641 5638 5634 5630 5625 5621 5616 5612 5609 5607 5604 5602 5599 5596